| time (UTC) | temp F | wind direction | speed MPH | gust MPH | rain 1hr in | rain 24hr in | rain mn in | humidity % | barometer mb |
| 20260509183957 | 58 | 220 | 2.0 | 4.0 | 0.00 | 0.00 | 0.00 | 73 | 1021.5 |
| 20260509183930 | 0 | 0.0 | 0.0 | 0.00 | 0.00 | 0.00 | |||
| 20260509183457 | 58 | 285 | 1.0 | 3.0 | 0.00 | 0.00 | 0.00 | 74 | 1021.3 |
| 20260509183430 | 0 | 0.0 | 0.0 | 0.00 | 0.00 | 0.00 | |||
| 20260509182956 | 58 | 305 | 3.0 | 6.0 | 0.00 | 0.00 | 0.00 | 74 | 1021.3 |
| 20260509182457 | 59 | 286 | 4.0 | 6.0 | 0.00 | 0.00 | 0.00 | 72 | 1021.3 |
| 20260509181958 | 58 | 285 | 4.0 | 7.0 | 0.00 | 0.00 | 0.00 | 73 | 1021.4 |
| 20260509181931 | 0 | 0.0 | 0.0 | 0.00 | 0.00 | 0.00 | |||
| 20260509181457 | 58 | 278 | 1.0 | 3.0 | 0.00 | 0.00 | 0.00 | 73 | 1021.5 |
| 20260509180957 | 58 | 301 | 2.0 | 4.0 | 0.00 | 0.00 | 0.00 | 74 | 1021.5 |
| 20260509180457 | 57 | 210 | 2.0 | 3.0 | 0.00 | 0.00 | 0.00 | 75 | 1021.6 |
| 20260509180429 | 0 | 0.0 | 0.0 | 0.00 | 0.00 | 0.00 | |||
| 20260509175958 | 57 | 216 | 3.0 | 4.0 | 0.00 | 0.00 | 0.00 | 75 | 1021.6 |
| 20260509175938 | 0 | 0.0 | 0.0 | 0.00 | 0.00 | 0.00 | |||
| 20260509175457 | 57 | 280 | 2.0 | 3.0 | 0.00 | 0.00 | 0.00 | 74 | 1021.6 |
| 20260509175433 | 0 | 0.0 | 0.0 | 0.00 | 0.00 | 0.00 | |||
| 20260509174957 | 57 | 209 | 2.0 | 4.0 | 0.00 | 0.00 | 0.00 | 75 | 1021.5 |
| 20260509174929 | 0 | 0.0 | 0.0 | 0.00 | 0.00 | 0.00 | |||
| 20260509174457 | 57 | 205 | 2.0 | 4.0 | 0.00 | 0.00 | 0.00 | 75 | 1021.6 |
| 20260509174434 | 0 | 0.0 | 0.0 | 0.00 | 0.00 | 0.00 | |||
| 20260509173957 | 57 | 224 | 1.0 | 3.0 | 0.00 | 0.00 | 0.00 | 76 | 1021.5 |
| 20260509173928 | 0 | 0.0 | 0.0 | 0.00 | 0.00 | 0.00 | |||
| 20260509173457 | 57 | 264 | 1.0 | 4.0 | 0.00 | 0.00 | 0.00 | 75 | 1021.6 |
| 20260509173426 | 0 | 0.0 | 0.0 | 0.00 | 0.00 | 0.00 | |||
| 20260509172957 | 56 | 306 | 0.0 | 2.0 | 0.00 | 0.00 | 0.00 | 75 | 1021.6 |
| 20260509172925 | 0 | 0.0 | 0.0 | 0.00 | 0.00 | 0.00 | |||
| 20260509172457 | 56 | 314 | 1.0 | 2.0 | 0.00 | 0.00 | 0.00 | 75 | 1021.6 |
| 20260509172426 | 0 | 0.0 | 0.0 | 0.00 | 0.00 | 0.00 | |||
| 20260509171958 | 56 | 226 | 1.0 | 2.0 | 0.00 | 0.00 | 0.00 | 76 | 1021.6 |
| 20260509171925 | 0 | 0.0 | 0.0 | 0.00 | 0.00 | 0.00 | |||
| 20260509171457 | 56 | 324 | 2.0 | 3.0 | 0.00 | 0.00 | 0.00 | 76 | 1021.7 |
| 20260509171426 | 0 | 0.0 | 0.0 | 0.00 | 0.00 | 0.00 | |||
| 20260509170959 | 56 | 266 | 2.0 | 2.0 | 0.00 | 0.00 | 0.00 | 76 | 1021.7 |
| 20260509170926 | 0 | 0.0 | 0.0 | 0.00 | 0.00 | 0.00 | |||
| 20260509170457 | 56 | 270 | 1.0 | 2.0 | 0.00 | 0.00 | 0.00 | 77 | 1021.7 |
| 20260509170426 | 0 | 0.0 | 0.0 | 0.00 | 0.00 | 0.00 | |||
| 20260509165959 | 56 | 297 | 3.0 | 4.0 | 0.00 | 0.00 | 0.00 | 76 | 1021.7 |
| 20260509165923 | 0 | 0.0 | 0.0 | 0.00 | 0.00 | 0.00 | |||
| 20260509165459 | 56 | 307 | 2.0 | 3.0 | 0.00 | 0.00 | 0.00 | 77 | 1021.7 |
| 20260509165424 | 0 | 0.0 | 0.0 | 0.00 | 0.00 | 0.00 | |||
| 20260509164957 | 56 | 258 | 1.0 | 4.0 | 0.00 | 0.00 | 0.00 | 77 | 1021.6 |
| 20260509164457 | 57 | 282 | 2.0 | 4.0 | 0.00 | 0.00 | 0.00 | 76 | 1021.7 |
| 20260509164421 | 0 | 0.0 | 0.0 | 0.00 | 0.00 | 0.00 | |||
| 20260509163958 | 57 | 279 | 1.0 | 4.0 | 0.00 | 0.00 | 0.00 | 75 | 1021.7 |
| 20260509163920 | 0 | 0.0 | 0.0 | 0.00 | 0.00 | 0.00 | |||
| 20260509163457 | 56 | 301 | 2.0 | 4.0 | 0.00 | 0.00 | 0.00 | 75 | 1021.7 |
| 20260509163418 | 0 | 0.0 | 0.0 | 0.00 | 0.00 | 0.00 | |||
| 20260509162957 | 56 | 312 | 2.0 | 3.0 | 0.00 | 0.00 | 0.00 | 77 | 1021.7 |
| 20260509162919 | 0 | 0.0 | 0.0 | 0.00 | 0.00 | 0.00 | |||
| 20260509162457 | 56 | 285 | 2.0 | 3.0 | 0.00 | 0.00 | 0.00 | 76 | 1021.8 |
| 20260509162000 | 56 | 259 | 2.0 | 3.0 | 0.00 | 0.00 | 0.00 | 76 | 1021.8 |
| 20260509161918 | 0 | 0.0 | 0.0 | 0.00 | 0.00 | 0.00 | |||
| 20260509161457 | 56 | 239 | 2.0 | 3.0 | 0.00 | 0.00 | 0.00 | 76 | 1021.9 |
| 20260509161418 | 0 | 0.0 | 0.0 | 0.00 | 0.00 | 0.00 | |||
| 20260509160957 | 56 | 284 | 2.0 | 3.0 | 0.00 | 0.00 | 0.00 | 75 | 1022.0 |
| 20260509160918 | 0 | 0.0 | 0.0 | 0.00 | 0.00 | 0.00 | |||
| 20260509160457 | 56 | 209 | 3.0 | 4.0 | 0.00 | 0.00 | 0.00 | 74 | 1022.1 |
| 20260509155957 | 55 | 257 | 2.0 | 3.0 | 0.00 | 0.00 | 0.00 | 75 | 1022.1 |
| 20260509155457 | 55 | 263 | 1.0 | 2.0 | 0.00 | 0.00 | 0.00 | 75 | 1022.1 |
| 20260509154957 | 55 | 316 | 2.0 | 3.0 | 0.00 | 0.00 | 0.00 | 74 | 1022.2 |
| 20260509154920 | 0 | 0.0 | 0.0 | 0.00 | 0.00 | 0.00 | |||
| 20260509154457 | 55 | 6 | 1.0 | 3.0 | 0.00 | 0.00 | 0.00 | 74 | 1022.2 |
| 20260509153958 | 55 | 308 | 1.0 | 2.0 | 0.00 | 0.00 | 0.00 | 77 | 1022.3 |
| 20260509153457 | 55 | 218 | 1.0 | 2.0 | 0.00 | 0.00 | 0.00 | 78 | 1022.3 |
| 20260509153413 | 0 | 0.0 | 0.0 | 0.00 | 0.00 | 0.00 | |||
| 20260509152957 | 55 | 0 | 0.0 | 0.0 | 0.00 | 0.00 | 0.00 | 77 | 1022.3 |
| 20260509152457 | 55 | 186 | 0.0 | 1.0 | 0.00 | 0.00 | 0.00 | 77 | 1022.2 |
| 20260509152412 | 0 | 0.0 | 0.0 | 0.00 | 0.00 | 0.00 | |||
| 20260509151957 | 55 | 282 | 0.0 | 1.0 | 0.00 | 0.00 | 0.00 | 77 | 1022.3 |
| 20260509151457 | 55 | 0 | 0.0 | 0.0 | 0.00 | 0.00 | 0.00 | 76 | 1022.2 |
| 20260509151413 | 0 | 0.0 | 0.0 | 0.00 | 0.00 | 0.00 | |||
| 20260509150957 | 54 | 354 | 0.0 | 1.0 | 0.00 | 0.00 | 0.00 | 78 | 1022.3 |
| 20260509150913 | 0 | 0.0 | 0.0 | 0.00 | 0.00 | 0.00 | |||
| 20260509150457 | 54 | 299 | 0.0 | 0.0 | 0.00 | 0.00 | 0.00 | 77 | 1022.3 |
| 20260509150413 | 0 | 0.0 | 0.0 | 0.00 | 0.00 | 0.00 | |||
| 20260509145957 | 54 | 345 | 0.0 | 0.0 | 0.00 | 0.00 | 0.00 | 78 | 1022.4 |
| 20260509145913 | 0 | 0.0 | 0.0 | 0.00 | 0.00 | 0.00 | |||
| 20260509145457 | 53 | 263 | 0.0 | 2.0 | 0.00 | 0.00 | 0.00 | 79 | 1022.4 |
| 20260509145413 | 0 | 0.0 | 0.0 | 0.00 | 0.00 | 0.00 | |||
| 20260509144959 | 53 | 0 | 0.0 | 0.0 | 0.00 | 0.00 | 0.00 | 80 | 1022.4 |
| 20260509144913 | 0 | 0.0 | 0.0 | 0.00 | 0.00 | 0.00 | |||
| 20260509144457 | 53 | 173 | 0.0 | 1.0 | 0.00 | 0.00 | 0.00 | 80 | 1022.5 |
| 20260509144413 | 0 | 0.0 | 0.0 | 0.00 | 0.00 | 0.00 | |||
| 20260509143957 | 52 | 114 | 0.0 | 1.0 | 0.00 | 0.00 | 0.00 | 81 | 1022.5 |
| 20260509143458 | 52 | 125 | 2.0 | 3.0 | 0.00 | 0.00 | 0.00 | 81 | 1022.3 |
| 20260509143411 | 0 | 0.0 | 0.0 | 0.00 | 0.00 | 0.00 | |||
| 20260509142958 | 53 | 135 | 2.0 | 2.0 | 0.00 | 0.00 | 0.00 | 81 | 1022.4 |
| 20260509142911 | 0 | 0.0 | 0.0 | 0.00 | 0.00 | 0.00 | |||
| 20260509142457 | 52 | 143 | 0.0 | 1.0 | 0.00 | 0.00 | 0.00 | 82 | 1022.4 |
| 20260509141958 | 52 | 0 | 0.0 | 0.0 | 0.00 | 0.00 | 0.00 | 82 | 1022.5 |
| 20260509141911 | 0 | 0.0 | 0.0 | 0.00 | 0.00 | 0.00 | |||
| 20260509141457 | 52 | 88 | 0.0 | 0.0 | 0.00 | 0.00 | 0.00 | 81 | 1022.5 |
| 20260509141415 | 0 | 0.0 | 0.0 | 0.00 | 0.00 | 0.00 | |||
| 20260509140957 | 52 | 128 | 2.0 | 3.0 | 0.00 | 0.00 | 0.00 | 81 | 1022.5 |
| 20260509140911 | 0 | 0.0 | 0.0 | 0.00 | 0.00 | 0.00 | |||
| 20260509140457 | 52 | 126 | 2.0 | 3.0 | 0.00 | 0.00 | 0.00 | 81 | 1022.5 |
| 20260509140359 | 0 | 0.0 | 0.0 | 0.00 | 0.00 | 0.00 | |||
| 20260509135957 | 52 | 90 | 4.0 | 5.0 | 0.00 | 0.00 | 0.00 | 81 | 1022.5 |
| 20260509135856 | 0 | 0.0 | 0.0 | 0.00 | 0.00 | 0.00 | |||
| 20260509135458 | 52 | 107 | 3.0 | 4.0 | 0.00 | 0.00 | 0.00 | 81 | 1022.5 |
| 20260509134957 | 52 | 113 | 3.0 | 4.0 | 0.00 | 0.00 | 0.00 | 80 | 1022.6 |
| 20260509134842 | 0 | 0.0 | 0.0 | 0.00 | 0.00 | 0.00 | |||
| 20260509134458 | 52 | 107 | 3.0 | 3.0 | 0.00 | 0.00 | 0.00 | 81 | 1022.7 |
| 20260509134341 | 0 | 0.0 | 0.0 | 0.00 | 0.00 | 0.00 | |||
| 20260509133958 | 52 | 102 | 4.0 | 4.0 | 0.00 | 0.00 | 0.00 | 81 | 1022.6 |
| 20260509133841 | 0 | 0.0 | 0.0 | 0.00 | 0.00 | 0.00 | |||
| 20260509133457 | 52 | 107 | 4.0 | 4.0 | 0.00 | 0.00 | 0.00 | 80 | 1022.5 |
| 20260509133342 | 0 | 0.0 | 0.0 | 0.00 | 0.00 | 0.00 | |||
| 20260509132957 | 52 | 102 | 3.0 | 4.0 | 0.00 | 0.00 | 0.00 | 80 | 1022.5 |
| 20260509132841 | 0 | 0.0 | 0.0 | 0.00 | 0.00 | 0.00 | |||
| 20260509132457 | 51 | 94 | 4.0 | 5.0 | 0.00 | 0.00 | 0.00 | 80 | 1022.5 |
| 20260509132342 | 0 | 0.0 | 0.0 | 0.00 | 0.00 | 0.00 | |||
| 20260509131957 | 51 | 97 | 5.0 | 5.0 | 0.00 | 0.00 | 0.00 | 79 | 1022.5 |
| 20260509131840 | 0 | 0.0 | 0.0 | 0.00 | 0.00 | 0.00 | |||
| 20260509131457 | 52 | 104 | 3.0 | 4.0 | 0.00 | 0.00 | 0.00 | 79 | 1022.5 |
| 20260509130958 | 51 | 87 | 4.0 | 5.0 | 0.00 | 0.00 | 0.00 | 78 | 1022.5 |
| 20260509130457 | 51 | 93 | 4.0 | 4.0 | 0.00 | 0.00 | 0.00 | 79 | 1022.5 |
| 20260509130340 | 0 | 0.0 | 0.0 | 0.00 | 0.00 | 0.00 | |||
| 20260509125957 | 51 | 99 | 3.0 | 4.0 | 0.00 | 0.00 | 0.00 | 79 | 1022.5 |
| 20260509125840 | 0 | 0.0 | 0.0 | 0.00 | 0.00 | 0.00 | |||
| 20260509125459 | 51 | 105 | 3.0 | 3.0 | 0.00 | 0.00 | 0.00 | 79 | 1022.5 |
| 20260509125341 | 0 | 0.0 | 0.0 | 0.00 | 0.00 | 0.00 | |||
| 20260509124957 | 51 | 95 | 3.0 | 4.0 | 0.00 | 0.00 | 0.00 | 79 | 1022.4 |
| 20260509124830 | 0 | 0.0 | 0.0 | 0.00 | 0.00 | 0.00 | |||
| 20260509124458 | 51 | 105 | 4.0 | 4.0 | 0.00 | 0.00 | 0.00 | 78 | 1022.4 |
| 20260509124330 | 0 | 0.0 | 0.0 | 0.00 | 0.00 | 0.00 | |||
| 20260509123957 | 51 | 105 | 3.0 | 4.0 | 0.00 | 0.00 | 0.00 | 79 | 1022.3 |
| 20260509123830 | 0 | 0.0 | 0.0 | 0.00 | 0.00 | 0.00 | |||
| 20260509123458 | 51 | 107 | 4.0 | 4.0 | 0.00 | 0.00 | 0.00 | 78 | 1022.4 |
| 20260509123329 | 0 | 0.0 | 0.0 | 0.00 | 0.00 | 0.00 | |||
| 20260509122957 | 51 | 92 | 4.0 | 4.0 | 0.00 | 0.00 | 0.00 | 79 | 1022.4 |
| 20260509122827 | 0 | 0.0 | 0.0 | 0.00 | 0.00 | 0.00 | |||
| 20260509122457 | 51 | 97 | 4.0 | 4.0 | 0.00 | 0.00 | 0.00 | 79 | 1022.4 |
| 20260509122327 | 0 | 0.0 | 0.0 | 0.00 | 0.00 | 0.00 | |||
| 20260509121958 | 51 | 106 | 3.0 | 4.0 | 0.00 | 0.00 | 0.00 | 79 | 1022.5 |
| 20260509121827 | 0 | 0.0 | 0.0 | 0.00 | 0.00 | 0.00 | |||
| 20260509121457 | 51 | 92 | 2.0 | 3.0 | 0.00 | 0.00 | 0.00 | 79 | 1022.5 |
| 20260509120957 | 51 | 93 | 4.0 | 4.0 | 0.00 | 0.00 | 0.00 | 79 | 1022.5 |
| 20260509120812 | 0 | 0.0 | 0.0 | 0.00 | 0.00 | 0.00 | |||
| 20260509120458 | 51 | 98 | 3.0 | 3.0 | 0.00 | 0.00 | 0.00 | 78 | 1022.5 |
| 20260509120313 | 0 | 0.0 | 0.0 | 0.00 | 0.00 | 0.00 | |||
| 20260509115958 | 51 | 100 | 3.0 | 3.0 | 0.00 | 0.00 | 0.00 | 79 | 1022.6 |
| 20260509115813 | 0 | 0.0 | 0.0 | 0.00 | 0.00 | 0.00 | |||
| 20260509115457 | 51 | 79 | 4.0 | 4.0 | 0.00 | 0.00 | 0.00 | 79 | 1022.5 |
| 20260509115313 | 0 | 0.0 | 0.0 | 0.00 | 0.00 | 0.00 | |||
| 20260509114958 | 51 | 94 | 4.0 | 4.0 | 0.00 | 0.00 | 0.00 | 78 | 1022.6 |
| 20260509114813 | 0 | 0.0 | 0.0 | 0.00 | 0.00 | 0.00 | |||
| 20260509114457 | 51 | 84 | 3.0 | 4.0 | 0.00 | 0.00 | 0.00 | 79 | 1022.7 |
| 20260509114314 | 0 | 0.0 | 0.0 | 0.00 | 0.00 | 0.00 | |||
| 20260509113957 | 51 | 86 | 3.0 | 3.0 | 0.00 | 0.00 | 0.00 | 79 | 1022.7 |
| 20260509113813 | 0 | 0.0 | 0.0 | 0.00 | 0.00 | 0.00 | |||
| 20260509113457 | 51 | 99 | 3.0 | 3.0 | 0.00 | 0.00 | 0.00 | 79 | 1022.7 |
| 20260509113313 | 0 | 0.0 | 0.0 | 0.00 | 0.00 | 0.00 | |||
| 20260509112957 | 51 | 111 | 2.0 | 3.0 | 0.00 | 0.00 | 0.00 | 79 | 1022.7 |
| 20260509112758 | 0 | 0.0 | 0.0 | 0.00 | 0.00 | 0.00 | |||
| 20260509112458 | 51 | 107 | 2.0 | 3.0 | 0.00 | 0.00 | 0.00 | 79 | 1022.6 |
| 20260509112258 | 0 | 0.0 | 0.0 | 0.00 | 0.00 | 0.00 | |||
| 20260509111957 | 51 | 100 | 2.0 | 2.0 | 0.00 | 0.00 | 0.00 | 79 | 1022.6 |
| 20260509111758 | 0 | 0.0 | 0.0 | 0.00 | 0.00 | 0.00 | |||
| 20260509111457 | 51 | 95 | 1.0 | 2.0 | 0.00 | 0.00 | 0.00 | 79 | 1022.6 |
| 20260509111259 | 0 | 0.0 | 0.0 | 0.00 | 0.00 | 0.00 | |||
| 20260509110958 | 51 | 95 | 1.0 | 2.0 | 0.00 | 0.00 | 0.00 | 78 | 1022.6 |
| 20260509110759 | 0 | 0.0 | 0.0 | 0.00 | 0.00 | 0.00 | |||
| 20260509110457 | 51 | 100 | 0.0 | 0.0 | 0.00 | 0.00 | 0.00 | 78 | 1022.6 |
| 20260509105957 | 51 | 0 | 0.0 | 0.0 | 0.00 | 0.00 | 0.00 | 78 | 1022.6 |
| 20260509105759 | 0 | 0.0 | 0.0 | 0.00 | 0.00 | 0.00 | |||
| 20260509105457 | 51 | 95 | 1.0 | 2.0 | 0.00 | 0.00 | 0.00 | 78 | 1022.6 |
| 20260509105258 | 0 | 0.0 | 0.0 | 0.00 | 0.00 | 0.00 | |||
| 20260509104959 | 51 | 83 | 1.0 | 2.0 | 0.00 | 0.00 | 0.00 | 78 | 1022.6 |
| 20260509104759 | 0 | 0.0 | 0.0 | 0.00 | 0.00 | 0.00 | |||
| 20260509104457 | 51 | 0 | 0.0 | 0.0 | 0.00 | 0.00 | 0.00 | 78 | 1022.6 |
| 20260509104259 | 0 | 0.0 | 0.0 | 0.00 | 0.00 | 0.00 | |||
| 20260509103957 | 51 | 99 | 1.0 | 2.0 | 0.00 | 0.00 | 0.00 | 79 | 1022.6 |
| 20260509103745 | 0 | 0.0 | 0.0 | 0.00 | 0.00 | 0.00 | |||
| 20260509103457 | 51 | 85 | 2.0 | 3.0 | 0.00 | 0.00 | 0.00 | 78 | 1022.6 |
| 20260509103245 | 0 | 0.0 | 0.0 | 0.00 | 0.00 | 0.00 | |||
| 20260509102957 | 51 | 88 | 3.0 | 4.0 | 0.00 | 0.00 | 0.00 | 78 | 1022.5 |
| 20260509102457 | 51 | 98 | 3.0 | 3.0 | 0.00 | 0.00 | 0.00 | 78 | 1022.6 |
| 20260509102245 | 0 | 0.0 | 0.0 | 0.00 | 0.00 | 0.00 | |||
| 20260509101957 | 51 | 100 | 3.0 | 4.0 | 0.00 | 0.00 | 0.00 | 78 | 1022.6 |
| 20260509101743 | 0 | 0.0 | 0.0 | 0.00 | 0.00 | 0.00 | |||
| 20260509101457 | 51 | 91 | 3.0 | 4.0 | 0.00 | 0.00 | 0.00 | 78 | 1022.6 |
| 20260509101243 | 0 | 0.0 | 0.0 | 0.00 | 0.00 | 0.00 | |||
| 20260509101002 | 51 | 95 | 3.0 | 4.0 | 0.00 | 0.00 | 0.00 | 78 | 1022.6 |
| 20260509100743 | 0 | 0.0 | 0.0 | 0.00 | 0.00 | 0.00 | |||
| 20260509100457 | 51 | 98 | 3.0 | 3.0 | 0.00 | 0.00 | 0.00 | 78 | 1022.6 |
| 20260509100244 | 0 | 0.0 | 0.0 | 0.00 | 0.00 | 0.00 | |||
| 20260509095957 | 51 | 98 | 3.0 | 4.0 | 0.00 | 0.00 | 0.00 | 79 | 1022.6 |
| 20260509095743 | 0 | 0.0 | 0.0 | 0.00 | 0.00 | 0.00 | |||
| 20260509095457 | 51 | 96 | 3.0 | 4.0 | 0.00 | 0.00 | 0.00 | 79 | 1022.6 |
| 20260509095244 | 0 | 0.0 | 0.0 | 0.00 | 0.00 | 0.00 | |||
| 20260509094957 | 51 | 101 | 3.0 | 3.0 | 0.00 | 0.00 | 0.00 | 79 | 1022.6 |
| 20260509094457 | 51 | 102 | 3.0 | 4.0 | 0.00 | 0.00 | 0.00 | 79 | 1022.5 |
| 20260509094240 | 0 | 0.0 | 0.0 | 0.00 | 0.00 | 0.00 | |||
| 20260509093957 | 51 | 103 | 3.0 | 4.0 | 0.00 | 0.00 | 0.00 | 79 | 1022.5 |
| 20260509093740 | 0 | 0.0 | 0.0 | 0.00 | 0.00 | 0.00 | |||
| 20260509093457 | 51 | 95 | 3.0 | 4.0 | 0.00 | 0.00 | 0.00 | 78 | 1022.5 |
| 20260509093240 | 0 | 0.0 | 0.0 | 0.00 | 0.00 | 0.00 | |||
| 20260509092958 | 51 | 100 | 3.0 | 4.0 | 0.00 | 0.00 | 0.00 | 78 | 1022.4 |
| 20260509092740 | 0 | 0.0 | 0.0 | 0.00 | 0.00 | 0.00 | |||
| 20260509092457 | 51 | 99 | 4.0 | 4.0 | 0.00 | 0.00 | 0.00 | 78 | 1022.4 |
| 20260509092241 | 0 | 0.0 | 0.0 | 0.00 | 0.00 | 0.00 | |||
| 20260509091958 | 51 | 103 | 3.0 | 4.0 | 0.00 | 0.00 | 0.00 | 78 | 1022.5 |
| 20260509091457 | 51 | 90 | 3.0 | 4.0 | 0.00 | 0.00 | 0.00 | 78 | 1022.5 |
| 20260509091241 | 0 | 0.0 | 0.0 | 0.00 | 0.00 | 0.00 | |||
| 20260509090957 | 51 | 96 | 4.0 | 5.0 | 0.00 | 0.00 | 0.00 | 78 | 1022.4 |
| 20260509090741 | 0 | 0.0 | 0.0 | 0.00 | 0.00 | 0.00 | |||
| 20260509090457 | 51 | 100 | 4.0 | 4.0 | 0.00 | 0.00 | 0.00 | 78 | 1022.4 |
| 20260509085957 | 51 | 90 | 3.0 | 4.0 | 0.00 | 0.00 | 0.00 | 78 | 1022.4 |
| 20260509085741 | 0 | 0.0 | 0.0 | 0.00 | 0.00 | 0.00 | |||
| 20260509085458 | 51 | 99 | 3.0 | 4.0 | 0.00 | 0.00 | 0.00 | 78 | 1022.5 |
| 20260509085241 | 0 | 0.0 | 0.0 | 0.00 | 0.00 | 0.00 | |||
| 20260509084957 | 51 | 94 | 4.0 | 5.0 | 0.00 | 0.00 | 0.00 | 79 | 1022.5 |
| 20260509084738 | 0 | 0.0 | 0.0 | 0.00 | 0.00 | 0.00 | |||
| 20260509084457 | 51 | 84 | 3.0 | 4.0 | 0.00 | 0.00 | 0.00 | 78 | 1022.5 |
| 20260509084238 | 0 | 0.0 | 0.0 | 0.00 | 0.00 | 0.00 | |||
| 20260509083957 | 51 | 96 | 4.0 | 5.0 | 0.00 | 0.00 | 0.00 | 78 | 1022.6 |
| 20260509083739 | 0 | 0.0 | 0.0 | 0.00 | 0.00 | 0.00 | |||
| 20260509083457 | 51 | 93 | 4.0 | 6.0 | 0.00 | 0.00 | 0.00 | 77 | 1022.6 |
| 20260509083238 | 0 | 0.0 | 0.0 | 0.00 | 0.00 | 0.00 | |||
| 20260509082957 | 51 | 83 | 4.0 | 5.0 | 0.00 | 0.00 | 0.00 | 78 | 1022.6 |
| 20260509082740 | 0 | 0.0 | 0.0 | 0.00 | 0.00 | 0.00 | |||
| 20260509082457 | 51 | 100 | 4.0 | 6.0 | 0.00 | 0.00 | 0.00 | 78 | 1022.6 |
| 20260509082238 | 0 | 0.0 | 0.0 | 0.00 | 0.00 | 0.00 | |||
| 20260509081957 | 51 | 97 | 3.0 | 4.0 | 0.00 | 0.00 | 0.00 | 78 | 1022.7 |
| 20260509081739 | 0 | 0.0 | 0.0 | 0.00 | 0.00 | 0.00 | |||
| 20260509081457 | 51 | 102 | 4.0 | 4.0 | 0.00 | 0.00 | 0.00 | 78 | 1022.7 |
| 20260509081239 | 0 | 0.0 | 0.0 | 0.00 | 0.00 | 0.00 | |||
| 20260509080957 | 52 | 104 | 3.0 | 4.0 | 0.00 | 0.00 | 0.00 | 77 | 1022.7 |
| 20260509080738 | 0 | 0.0 | 0.0 | 0.00 | 0.00 | 0.00 | |||
| 20260509080458 | 52 | 107 | 3.0 | 3.0 | 0.00 | 0.00 | 0.00 | 77 | 1022.7 |
| 20260509080239 | 0 | 0.0 | 0.0 | 0.00 | 0.00 | 0.00 | |||
| 20260509075958 | 52 | 93 | 4.0 | 5.0 | 0.00 | 0.00 | 0.00 | 77 | 1022.7 |
| 20260509075738 | 0 | 0.0 | 0.0 | 0.00 | 0.00 | 0.00 | |||
| 20260509075458 | 52 | 96 | 4.0 | 4.0 | 0.00 | 0.00 | 0.00 | 77 | 1022.6 |
| 20260509075239 | 0 | 0.0 | 0.0 | 0.00 | 0.00 | 0.00 | |||
| 20260509074957 | 52 | 97 | 4.0 | 4.0 | 0.00 | 0.00 | 0.00 | 77 | 1022.6 |
| 20260509074736 | 0 | 0.0 | 0.0 | 0.00 | 0.00 | 0.00 | |||
| 20260509074457 | 52 | 100 | 4.0 | 5.0 | 0.00 | 0.00 | 0.00 | 76 | 1022.6 |
| 20260509074236 | 0 | 0.0 | 0.0 | 0.00 | 0.00 | 0.00 | |||
| 20260509073957 | 52 | 97 | 4.0 | 4.0 | 0.00 | 0.00 | 0.00 | 76 | 1022.6 |
| 20260509073458 | 52 | 98 | 4.0 | 5.0 | 0.00 | 0.00 | 0.00 | 76 | 1022.5 |
| 20260509072957 | 52 | 103 | 3.0 | 4.0 | 0.00 | 0.00 | 0.00 | 77 | 1022.5 |
| 20260509072736 | 0 | 0.0 | 0.0 | 0.00 | 0.00 | 0.00 | |||
| 20260509072458 | 52 | 97 | 4.0 | 6.0 | 0.00 | 0.00 | 0.00 | 78 | 1022.6 |
| 20260509072237 | 0 | 0.0 | 0.0 | 0.00 | 0.00 | 0.00 | |||
| 20260509071958 | 52 | 102 | 4.0 | 5.0 | 0.00 | 0.00 | 0.00 | 77 | 1022.6 |
| 20260509071736 | 0 | 0.0 | 0.0 | 0.00 | 0.00 | 0.00 | |||
| 20260509071458 | 52 | 96 | 2.0 | 3.0 | 0.00 | 0.00 | 0.00 | 77 | 1022.6 |
| 20260509071236 | 0 | 0.0 | 0.0 | 0.00 | 0.00 | 0.00 | |||
| 20260509070957 | 52 | 75 | 3.0 | 4.0 | 0.00 | 0.00 | 0.00 | 77 | 1022.6 |
| 20260509070737 | 0 | 0.0 | 0.0 | 0.00 | 0.00 | 0.00 | |||
| 20260509070457 | 52 | 111 | 3.0 | 4.0 | 0.00 | 0.00 | 0.00 | 77 | 1022.6 |
| 20260509070237 | 0 | 0.0 | 0.0 | 0.00 | 0.00 | 0.00 | |||
| 20260509065957 | 52 | 89 | 3.0 | 4.0 | 0.00 | 0.00 | 0.00 | 78 | 1022.6 |
| 20260509065458 | 51 | 83 | 3.0 | 4.0 | 0.00 | 0.00 | 0.00 | 78 | 1022.5 |
| 20260509065237 | 0 | 0.0 | 0.0 | 0.00 | 0.00 | 0.00 | |||
| 20260509064957 | 51 | 117 | 1.0 | 2.0 | 0.00 | 0.00 | 0.00 | 78 | 1022.6 |
| 20260509064737 | 0 | 0.0 | 0.0 | 0.00 | 0.00 | 0.00 | |||
| 20260509064457 | 51 | 106 | 3.0 | 4.0 | 0.00 | 0.00 | 0.00 | 78 | 1022.6 |
| 20260509064234 | 0 | 0.0 | 0.0 | 0.00 | 0.00 | 0.00 | |||
| 20260509063957 | 51 | 91 | 4.0 | 4.0 | 0.00 | 0.00 | 0.00 | 78 | 1022.6 |
| 20260509063734 | 0 | 0.0 | 0.0 | 0.00 | 0.00 | 0.00 | |||
| 20260509063457 | 51 | 82 | 3.0 | 4.0 | 0.00 | 0.00 | 0.00 | 78 | 1022.6 |
| 20260509063235 | 0 | 0.0 | 0.0 | 0.00 | 0.00 | 0.00 | |||
| 20260509062957 | 51 | 96 | 4.0 | 4.0 | 0.00 | 0.00 | 0.00 | 78 | 1022.6 |
| 20260509062735 | 0 | 0.0 | 0.0 | 0.00 | 0.00 | 0.00 | |||
| 20260509062458 | 51 | 89 | 3.0 | 4.0 | 0.00 | 0.00 | 0.00 | 78 | 1022.6 |
| 20260509061957 | 51 | 106 | 3.0 | 4.0 | 0.00 | 0.00 | 0.00 | 78 | 1022.7 |
| 20260509061735 | 0 | 0.0 | 0.0 | 0.00 | 0.00 | 0.00 | |||
| 20260509061458 | 51 | 98 | 3.0 | 3.0 | 0.00 | 0.00 | 0.00 | 78 | 1022.6 |
| 20260509061235 | 0 | 0.0 | 0.0 | 0.00 | 0.00 | 0.00 | |||
| 20260509060957 | 51 | 82 | 4.0 | 5.0 | 0.00 | 0.00 | 0.00 | 78 | 1022.6 |
| 20260509060736 | 0 | 0.0 | 0.0 | 0.00 | 0.00 | 0.00 | |||
| 20260509060458 | 51 | 84 | 3.0 | 4.0 | 0.00 | 0.00 | 0.00 | 78 | 1022.6 |
| 20260509060235 | 0 | 0.0 | 0.0 | 0.00 | 0.00 | 0.00 | |||
| 20260509055957 | 52 | 90 | 0.0 | 2.0 | 0.00 | 0.00 | 0.00 | 77 | 1022.6 |
| 20260509055735 | 0 | 0.0 | 0.0 | 0.00 | 0.00 | 0.00 | |||
| 20260509055457 | 52 | 141 | 0.0 | 2.0 | 0.00 | 0.00 | 0.00 | 77 | 1022.7 |
| 20260509054958 | 51 | 76 | 3.0 | 4.0 | 0.00 | 0.00 | 0.00 | 77 | 1022.7 |
| 20260509054732 | 0 | 0.0 | 0.0 | 0.00 | 0.00 | 0.00 | |||
| 20260509054457 | 51 | 77 | 5.0 | 6.0 | 0.00 | 0.00 | 0.00 | 77 | 1022.7 |
| 20260509053957 | 51 | 65 | 2.0 | 4.0 | 0.00 | 0.00 | 0.00 | 78 | 1022.6 |
| 20260509053727 | 0 | 0.0 | 0.0 | 0.00 | 0.00 | 0.00 | |||
| 20260509053457 | 51 | 143 | 2.0 | 2.0 | 0.00 | 0.00 | 0.00 | 77 | 1022.6 |
| 20260509053226 | 0 | 0.0 | 0.0 | 0.00 | 0.00 | 0.00 | |||
| 20260509052957 | 51 | 97 | 3.0 | 6.0 | 0.00 | 0.00 | 0.00 | 77 | 1022.6 |
| 20260509052726 | 0 | 0.0 | 0.0 | 0.00 | 0.00 | 0.00 | |||
| 20260509052457 | 51 | 115 | 3.0 | 5.0 | 0.00 | 0.00 | 0.00 | 77 | 1022.6 |
| 20260509052227 | 0 | 0.0 | 0.0 | 0.00 | 0.00 | 0.00 | |||
| 20260509051957 | 51 | 121 | 3.0 | 4.0 | 0.00 | 0.00 | 0.00 | 77 | 1022.6 |
| 20260509051726 | 0 | 0.0 | 0.0 | 0.00 | 0.00 | 0.00 | |||
| 20260509051459 | 51 | 117 | 3.0 | 5.0 | 0.00 | 0.00 | 0.00 | 77 | 1022.6 |
| 20260509051227 | 0 | 0.0 | 0.0 | 0.00 | 0.00 | 0.00 | |||
| 20260509050957 | 51 | 99 | 3.0 | 3.0 | 0.00 | 0.00 | 0.00 | 77 | 1022.5 |
| 20260509050726 | 0 | 0.0 | 0.0 | 0.00 | 0.00 | 0.00 | |||
| 20260509050457 | 51 | 86 | 3.0 | 5.0 | 0.00 | 0.00 | 0.00 | 76 | 1022.5 |
| 20260509050226 | 0 | 0.0 | 0.0 | 0.00 | 0.00 | 0.00 | |||
| 20260509045958 | 51 | 145 | 2.0 | 2.0 | 0.00 | 0.00 | 0.00 | 77 | 1022.5 |
| 20260509045727 | 0 | 0.0 | 0.0 | 0.00 | 0.00 | 0.00 | |||
| 20260509045457 | 51 | 101 | 4.0 | 5.0 | 0.00 | 0.00 | 0.00 | 76 | 1022.4 |
| 20260509045227 | 0 | 0.0 | 0.0 | 0.00 | 0.00 | 0.00 | |||
| 20260509044957 | 51 | 110 | 4.0 | 5.0 | 0.00 | 0.00 | 0.00 | 76 | 1022.4 |
| 20260509044724 | 0 | 0.0 | 0.0 | 0.00 | 0.00 | 0.00 | |||
| 20260509044457 | 51 | 124 | 3.0 | 5.0 | 0.00 | 0.00 | 0.00 | 76 | 1022.4 |
| 20260509044224 | 0 | 0.0 | 0.0 | 0.00 | 0.00 | 0.00 | |||
| 20260509043958 | 51 | 90 | 6.0 | 7.0 | 0.00 | 0.00 | 0.00 | 76 | 1022.3 |
| 20260509043725 | 0 | 0.0 | 0.0 | 0.00 | 0.00 | 0.00 | |||
| 20260509043457 | 51 | 124 | 4.0 | 6.0 | 0.00 | 0.00 | 0.00 | 76 | 1022.3 |
| 20260509043224 | 0 | 0.0 | 0.0 | 0.00 | 0.00 | 0.00 | |||
| 20260509042958 | 51 | 118 | 4.0 | 4.0 | 0.00 | 0.00 | 0.00 | 76 | 1022.3 |
| 20260509042458 | 51 | 114 | 4.0 | 5.0 | 0.00 | 0.00 | 0.00 | 76 | 1022.3 |
| 20260509042225 | 0 | 0.0 | 0.0 | 0.00 | 0.00 | 0.00 | |||
| 20260509041957 | 51 | 106 | 4.0 | 4.0 | 0.00 | 0.00 | 0.00 | 75 | 1022.1 |
| 20260509041725 | 0 | 0.0 | 0.0 | 0.00 | 0.00 | 0.00 | |||
| 20260509041457 | 51 | 141 | 4.0 | 6.0 | 0.00 | 0.00 | 0.00 | 75 | 1022.1 |
| 20260509041225 | 0 | 0.0 | 0.0 | 0.00 | 0.00 | 0.00 | |||
| 20260509040958 | 51 | 94 | 5.0 | 7.0 | 0.00 | 0.00 | 0.00 | 76 | 1022.1 |
| 20260509040724 | 0 | 0.0 | 0.0 | 0.00 | 0.00 | 0.00 | |||
| 20260509040457 | 51 | 81 | 5.0 | 7.0 | 0.00 | 0.00 | 0.00 | 76 | 1022.1 |
| 20260509040225 | 0 | 0.0 | 0.0 | 0.00 | 0.00 | 0.00 | |||
| 20260509035957 | 51 | 89 | 5.0 | 6.0 | 0.00 | 0.00 | 0.00 | 76 | 1022.1 |
| 20260509035457 | 51 | 91 | 7.0 | 10.0 | 0.00 | 0.00 | 0.00 | 76 | 1022.1 |
| 20260509034957 | 51 | 98 | 6.0 | 8.0 | 0.00 | 0.00 | 0.00 | 76 | 1022.0 |
| 20260509034725 | 0 | 0.0 | 0.0 | 0.00 | 0.00 | 0.00 | |||
| 20260509034457 | 51 | 104 | 5.0 | 7.0 | 0.00 | 0.00 | 0.00 | 76 | 1022.0 |
| 20260509034222 | 0 | 0.0 | 0.0 | 0.00 | 0.00 | 0.00 | |||
| 20260509033957 | 51 | 109 | 5.0 | 6.0 | 0.00 | 0.00 | 0.00 | 76 | 1022.0 |
| 20260509033722 | 0 | 0.0 | 0.0 | 0.00 | 0.00 | 0.00 | |||
| 20260509033457 | 51 | 88 | 6.0 | 8.0 | 0.00 | 0.00 | 0.00 | 76 | 1021.8 |
| 20260509033222 | 0 | 0.0 | 0.0 | 0.00 | 0.00 | 0.00 | |||
| 20260509032957 | 50 | 113 | 5.0 | 6.0 | 0.00 | 0.00 | 0.00 | 77 | 1021.9 |
| 20260509032457 | 50 | 107 | 4.0 | 6.0 | 0.00 | 0.00 | 0.00 | 76 | 1021.8 |
| 20260509032222 | 0 | 0.0 | 0.0 | 0.00 | 0.00 | 0.00 | |||
| 20260509031958 | 50 | 112 | 5.0 | 7.0 | 0.00 | 0.00 | 0.00 | 76 | 1021.8 |
| 20260509031723 | 0 | 0.0 | 0.0 | 0.00 | 0.00 | 0.00 | |||
| 20260509031457 | 50 | 102 | 6.0 | 8.0 | 0.00 | 0.00 | 0.00 | 76 | 1021.8 |
| 20260509031222 | 0 | 0.0 | 0.0 | 0.00 | 0.00 | 0.00 | |||
| 20260509030957 | 50 | 103 | 5.0 | 7.0 | 0.00 | 0.00 | 0.00 | 76 | 1021.8 |
| 20260509030723 | 0 | 0.0 | 0.0 | 0.00 | 0.00 | 0.00 | |||
| 20260509030457 | 50 | 104 | 5.0 | 6.0 | 0.00 | 0.00 | 0.00 | 76 | 1021.7 |
| 20260509030224 | 0 | 0.0 | 0.0 | 0.00 | 0.00 | 0.00 | |||
| 20260509025958 | 50 | 122 | 4.0 | 5.0 | 0.00 | 0.00 | 0.00 | 76 | 1021.7 |
| 20260509025724 | 0 | 0.0 | 0.0 | 0.00 | 0.00 | 0.00 | |||
| 20260509025457 | 50 | 108 | 6.0 | 7.0 | 0.00 | 0.00 | 0.00 | 75 | 1021.6 |
| 20260509025223 | 0 | 0.0 | 0.0 | 0.00 | 0.00 | 0.00 | |||
| 20260509024957 | 50 | 108 | 6.0 | 8.0 | 0.00 | 0.00 | 0.00 | 75 | 1021.7 |
| 20260509024720 | 0 | 0.0 | 0.0 | 0.00 | 0.00 | 0.00 | |||
| 20260509024457 | 50 | 109 | 6.0 | 6.0 | 0.00 | 0.00 | 0.00 | 75 | 1021.6 |
| 20260509024220 | 0 | 0.0 | 0.0 | 0.00 | 0.00 | 0.00 | |||
| 20260509023957 | 51 | 118 | 4.0 | 5.0 | 0.00 | 0.00 | 0.00 | 75 | 1021.6 |
| 20260509023721 | 0 | 0.0 | 0.0 | 0.00 | 0.00 | 0.00 | |||
| 20260509023457 | 51 | 110 | 5.0 | 7.0 | 0.00 | 0.00 | 0.00 | 76 | 1021.6 |
| 20260509023220 | 0 | 0.0 | 0.0 | 0.00 | 0.00 | 0.00 | |||
| 20260509022957 | 51 | 114 | 5.0 | 6.0 | 0.00 | 0.00 | 0.00 | 75 | 1021.5 |
| 20260509022720 | 0 | 0.0 | 0.0 | 0.00 | 0.00 | 0.00 | |||
| 20260509022457 | 51 | 114 | 5.0 | 6.0 | 0.00 | 0.00 | 0.00 | 75 | 1021.5 |
| 20260509022221 | 0 | 0.0 | 0.0 | 0.00 | 0.00 | 0.00 | |||
| 20260509021957 | 51 | 126 | 3.0 | 4.0 | 0.00 | 0.00 | 0.00 | 75 | 1021.4 |
| 20260509021457 | 51 | 132 | 3.0 | 5.0 | 0.00 | 0.00 | 0.00 | 74 | 1021.4 |
| 20260509021221 | 0 | 0.0 | 0.0 | 0.00 | 0.00 | 0.00 | |||
| 20260509020958 | 51 | 126 | 4.0 | 5.0 | 0.00 | 0.00 | 0.00 | 74 | 1021.4 |
| 20260509020721 | 0 | 0.0 | 0.0 | 0.00 | 0.00 | 0.00 | |||
| 20260509020457 | 51 | 140 | 3.0 | 5.0 | 0.00 | 0.00 | 0.00 | 74 | 1021.3 |
| 20260509020221 | 0 | 0.0 | 0.0 | 0.00 | 0.00 | 0.00 | |||
| 20260509015957 | 51 | 120 | 3.0 | 4.0 | 0.00 | 0.00 | 0.00 | 74 | 1021.3 |
| 20260509015722 | 0 | 0.0 | 0.0 | 0.00 | 0.00 | 0.00 | |||
| 20260509015457 | 52 | 120 | 4.0 | 6.0 | 0.00 | 0.00 | 0.00 | 73 | 1021.3 |
| 20260509014959 | 52 | 118 | 5.0 | 6.0 | 0.00 | 0.00 | 0.00 | 73 | 1021.4 |
| 20260509014718 | 0 | 0.0 | 0.0 | 0.00 | 0.00 | 0.00 | |||
| 20260509014457 | 52 | 133 | 4.0 | 6.0 | 0.00 | 0.00 | 0.00 | 74 | 1021.4 |
| 20260509014219 | 0 | 0.0 | 0.0 | 0.00 | 0.00 | 0.00 | |||
| 20260509013957 | 53 | 140 | 4.0 | 6.0 | 0.00 | 0.00 | 0.00 | 72 | 1021.4 |
| 20260509013718 | 0 | 0.0 | 0.0 | 0.00 | 0.00 | 0.00 | |||
| 20260509013458 | 53 | 133 | 4.0 | 8.0 | 0.00 | 0.00 | 0.00 | 72 | 1021.4 |
| 20260509012957 | 52 | 132 | 4.0 | 5.0 | 0.00 | 0.00 | 0.00 | 73 | 1021.3 |
| 20260509012717 | 0 | 0.0 | 0.0 | 0.00 | 0.00 | 0.00 | |||
| 20260509012457 | 52 | 140 | 5.0 | 6.0 | 0.00 | 0.00 | 0.00 | 73 | 1021.4 |
| 20260509012217 | 0 | 0.0 | 0.0 | 0.00 | 0.00 | 0.00 | |||
| 20260509011957 | 52 | 125 | 4.0 | 6.0 | 0.00 | 0.00 | 0.00 | 73 | 1021.5 |
| 20260509011717 | 0 | 0.0 | 0.0 | 0.00 | 0.00 | 0.00 | |||
| 20260509011458 | 52 | 143 | 4.0 | 6.0 | 0.00 | 0.00 | 0.00 | 74 | 1021.5 |
| 20260509011221 | 0 | 0.0 | 0.0 | 0.00 | 0.00 | 0.00 | |||
| 20260509010957 | 52 | 152 | 4.0 | 7.0 | 0.00 | 0.00 | 0.00 | 74 | 1021.5 |
| 20260509010717 | 0 | 0.0 | 0.0 | 0.00 | 0.00 | 0.00 | |||
| 20260509010459 | 52 | 163 | 4.0 | 7.0 | 0.00 | 0.00 | 0.00 | 74 | 1021.3 |
| 20260509010217 | 0 | 0.0 | 0.0 | 0.00 | 0.00 | 0.00 | |||
| 20260509005957 | 52 | 143 | 4.0 | 6.0 | 0.00 | 0.00 | 0.00 | 74 | 1021.3 |
| 20260509005721 | 0 | 0.0 | 0.0 | 0.00 | 0.00 | 0.00 | |||
| 20260509005457 | 52 | 138 | 5.0 | 7.0 | 0.00 | 0.00 | 0.00 | 74 | 1021.2 |
| 20260509005213 | 0 | 0.0 | 0.0 | 0.00 | 0.00 | 0.00 | |||
| 20260509004957 | 52 | 129 | 5.0 | 7.0 | 0.00 | 0.00 | 0.00 | 73 | 1021.2 |
| 20260509004713 | 0 | 0.0 | 0.0 | 0.00 | 0.00 | 0.00 | |||
| 20260509004457 | 52 | 124 | 4.0 | 6.0 | 0.00 | 0.00 | 0.00 | 73 | 1021.2 |
| 20260509004213 | 0 | 0.0 | 0.0 | 0.00 | 0.00 | 0.00 | |||
| 20260509003957 | 52 | 135 | 4.0 | 6.0 | 0.00 | 0.00 | 0.00 | 74 | 1021.3 |
| 20260509003710 | 0 | 0.0 | 0.0 | 0.00 | 0.00 | 0.00 | |||
| 20260509003457 | 52 | 133 | 3.0 | 4.0 | 0.00 | 0.00 | 0.00 | 75 | 1021.3 |
| 20260509003210 | 0 | 0.0 | 0.0 | 0.00 | 0.00 | 0.00 | |||
| 20260509002958 | 52 | 162 | 6.0 | 9.0 | 0.00 | 0.00 | 0.00 | 74 | 1021.3 |
| 20260509002711 | 0 | 0.0 | 0.0 | 0.00 | 0.00 | 0.00 | |||
| 20260509002457 | 52 | 152 | 6.0 | 9.0 | 0.00 | 0.00 | 0.00 | 74 | 1021.4 |
| 20260509002211 | 0 | 0.0 | 0.0 | 0.00 | 0.00 | 0.00 | |||
| 20260509001958 | 52 | 131 | 4.0 | 5.0 | 0.00 | 0.00 | 0.00 | 74 | 1021.3 |
| 20260509001711 | 0 | 0.0 | 0.0 | 0.00 | 0.00 | 0.00 | |||
| 20260509001457 | 52 | 158 | 5.0 | 6.0 | 0.00 | 0.00 | 0.00 | 76 | 1021.3 |
| 20260509001210 | 0 | 0.0 | 0.0 | 0.00 | 0.00 | 0.00 | |||
| 20260509000957 | 52 | 147 | 4.0 | 6.0 | 0.00 | 0.00 | 0.00 | 74 | 1021.2 |
| 20260509000457 | 53 | 165 | 5.0 | 7.0 | 0.00 | 0.00 | 0.00 | 74 | 1021.2 |
| 20260509000211 | 0 | 0.0 | 0.0 | 0.00 | 0.00 | 0.00 | |||
| 20260508235957 | 53 | 157 | 4.0 | 5.0 | 0.00 | 0.00 | 0.00 | 74 | 1021.2 |
| 20260508235711 | 0 | 0.0 | 0.0 | 0.00 | 0.00 | 0.00 | |||
| 20260508235457 | 53 | 137 | 3.0 | 6.0 | 0.00 | 0.00 | 0.00 | 74 | 1021.1 |
| 20260508235208 | 0 | 0.0 | 0.0 | 0.00 | 0.00 | 0.00 | |||
| 20260508234957 | 53 | 153 | 4.0 | 8.0 | 0.00 | 0.00 | 0.00 | 73 | 1021.1 |
| 20260508234708 | 0 | 0.0 | 0.0 | 0.00 | 0.00 | 0.00 | |||
| 20260508234456 | 54 | 154 | 4.0 | 6.0 | 0.00 | 0.00 | 0.00 | 73 | 1021.3 |
| 20260508234205 | 0 | 0.0 | 0.0 | 0.00 | 0.00 | 0.00 | |||
| 20260508233957 | 53 | 141 | 4.0 | 5.0 | 0.00 | 0.00 | 0.00 | 74 | 1021.2 |
| 20260508233705 | 0 | 0.0 | 0.0 | 0.00 | 0.00 | 0.00 | |||
| 20260508233459 | 54 | 155 | 5.0 | 8.0 | 0.00 | 0.00 | 0.00 | 72 | 1021.1 |
| 20260508233205 | 0 | 0.0 | 0.0 | 0.00 | 0.00 | 0.00 | |||
| 20260508232957 | 54 | 148 | 4.0 | 7.0 | 0.00 | 0.00 | 0.00 | 71 | 1021.2 |
| 20260508232706 | 0 | 0.0 | 0.0 | 0.00 | 0.00 | 0.00 | |||
| 20260508232457 | 54 | 141 | 6.0 | 9.0 | 0.00 | 0.00 | 0.00 | 72 | 1021.1 |
| 20260508232206 | 0 | 0.0 | 0.0 | 0.00 | 0.00 | 0.00 | |||
| 20260508231957 | 55 | 147 | 5.0 | 8.0 | 0.00 | 0.00 | 0.00 | 71 | 1021.0 |
| 20260508231705 | 0 | 0.0 | 0.0 | 0.00 | 0.00 | 0.00 | |||
| 20260508231458 | 55 | 124 | 6.0 | 8.0 | 0.00 | 0.00 | 0.00 | 71 | 1021.1 |
| 20260508230957 | 54 | 146 | 5.0 | 7.0 | 0.00 | 0.00 | 0.00 | 71 | 1021.1 |
| 20260508230457 | 53 | 152 | 5.0 | 8.0 | 0.00 | 0.00 | 0.00 | 72 | 1021.2 |
| 20260508230206 | 0 | 0.0 | 0.0 | 0.00 | 0.00 | 0.00 | |||
| 20260508230004 | 53 | 143 | 5.0 | 8.0 | 0.00 | 0.00 | 0.00 | 73 | 1021.1 |
| 20260508225457 | 53 | 161 | 5.0 | 8.0 | 0.00 | 0.00 | 0.00 | 73 | 1020.9 |
| 20260508225206 | 0 | 0.0 | 0.0 | 0.00 | 0.00 | 0.00 | |||
| 20260508224957 | 53 | 147 | 6.0 | 8.0 | 0.00 | 0.00 | 0.00 | 72 | 1021.0 |
| 20260508224703 | 0 | 0.0 | 0.0 | 0.00 | 0.00 | 0.00 | |||
| 20260508224457 | 53 | 142 | 5.0 | 7.0 | 0.00 | 0.00 | 0.00 | 73 | 1021.0 |
| 20260508224203 | 0 | 0.0 | 0.0 | 0.00 | 0.00 | 0.00 | |||
| 20260508223957 | 53 | 155 | 6.0 | 9.0 | 0.00 | 0.00 | 0.00 | 72 | 1021.0 |
| 20260508223703 | 0 | 0.0 | 0.0 | 0.00 | 0.00 | 0.00 | |||
| 20260508223458 | 53 | 163 | 6.0 | 10.0 | 0.00 | 0.00 | 0.00 | 72 | 1021.0 |
| 20260508222958 | 53 | 160 | 6.0 | 8.0 | 0.00 | 0.00 | 0.00 | 72 | 1020.9 |
| 20260508222704 | 0 | 0.0 | 0.0 | 0.00 | 0.00 | 0.00 | |||
| 20260508222459 | 53 | 161 | 5.0 | 7.0 | 0.00 | 0.00 | 0.00 | 72 | 1020.9 |
| 20260508221957 | 53 | 144 | 6.0 | 7.0 | 0.00 | 0.00 | 0.00 | 72 | 1021.0 |
| 20260508221705 | 0 | 0.0 | 0.0 | 0.00 | 0.00 | 0.00 | |||
| 20260508221457 | 53 | 155 | 6.0 | 8.0 | 0.00 | 0.00 | 0.00 | 71 | 1021.0 |
| 20260508220959 | 53 | 150 | 7.0 | 9.0 | 0.00 | 0.00 | 0.00 | 72 | 1020.9 |
| 20260508220704 | 0 | 0.0 | 0.0 | 0.00 | 0.00 | 0.00 | |||
| 20260508220458 | 53 | 158 | 4.0 | 6.0 | 0.00 | 0.00 | 0.00 | 72 | 1020.9 |
| 20260508215957 | 54 | 145 | 6.0 | 9.0 | 0.00 | 0.00 | 0.00 | 71 | 1020.7 |
| 20260508215705 | 0 | 0.0 | 0.0 | 0.00 | 0.00 | 0.00 | |||
| 20260508215457 | 55 | 158 | 6.0 | 8.0 | 0.00 | 0.00 | 0.00 | 70 | 1020.9 |
| 20260508215205 | 0 | 0.0 | 0.0 | 0.00 | 0.00 | 0.00 | |||
| 20260508214957 | 54 | 159 | 4.0 | 6.0 | 0.00 | 0.00 | 0.00 | 71 | 1020.7 |
| 20260508214704 | 0 | 0.0 | 0.0 | 0.00 | 0.00 | 0.00 | |||
| 20260508214457 | 53 | 169 | 6.0 | 10.0 | 0.00 | 0.00 | 0.00 | 70 | 1020.9 |
| 20260508213957 | 52 | 149 | 6.0 | 8.0 | 0.00 | 0.00 | 0.00 | 72 | 1020.8 |
| 20260508213701 | 0 | 0.0 | 0.0 | 0.00 | 0.00 | 0.00 | |||
| 20260508213457 | 52 | 144 | 5.0 | 8.0 | 0.00 | 0.00 | 0.00 | 73 | 1020.8 |
| 20260508213201 | 0 | 0.0 | 0.0 | 0.00 | 0.00 | 0.00 | |||
| 20260508212958 | 53 | 144 | 6.0 | 8.0 | 0.00 | 0.00 | 0.00 | 73 | 1020.7 |
| 20260508212702 | 0 | 0.0 | 0.0 | 0.00 | 0.00 | 0.00 | |||
| 20260508212458 | 53 | 162 | 6.0 | 8.0 | 0.00 | 0.00 | 0.00 | 73 | 1020.7 |
| 20260508212201 | 0 | 0.0 | 0.0 | 0.00 | 0.00 | 0.00 | |||
| 20260508211957 | 52 | 172 | 7.0 | 9.0 | 0.00 | 0.00 | 0.00 | 75 | 1020.8 |
| 20260508211702 | 0 | 0.0 | 0.0 | 0.00 | 0.00 | 0.00 | |||
| 20260508211457 | 52 | 156 | 4.0 | 8.0 | 0.00 | 0.00 | 0.00 | 76 | 1020.6 |
| 20260508210957 | 52 | 133 | 4.0 | 6.0 | 0.00 | 0.00 | 0.00 | 75 | 1020.5 |
| 20260508210702 | 0 | 0.0 | 0.0 | 0.00 | 0.00 | 0.00 | |||
| 20260508210457 | 52 | 159 | 5.0 | 7.0 | 0.00 | 0.00 | 0.00 | 76 | 1020.6 |
| 20260508210202 | 0 | 0.0 | 0.0 | 0.00 | 0.00 | 0.00 | |||
| 20260508210001 | 52 | 145 | 4.0 | 7.0 | 0.00 | 0.00 | 0.00 | 77 | 1020.5 |
| 20260508205457 | 52 | 135 | 4.0 | 5.0 | 0.00 | 0.00 | 0.00 | 76 | 1020.4 |
| 20260508205202 | 0 | 0.0 | 0.0 | 0.00 | 0.00 | 0.00 | |||
| 20260508204958 | 51 | 154 | 5.0 | 7.0 | 0.00 | 0.00 | 0.00 | 76 | 1020.4 |
| 20260508204702 | 0 | 0.0 | 0.0 | 0.00 | 0.00 | 0.00 | |||
| 20260508204457 | 51 | 134 | 4.0 | 5.0 | 0.00 | 0.00 | 0.00 | 76 | 1020.3 |
| 20260508204159 | 0 | 0.0 | 0.0 | 0.00 | 0.00 | 0.00 | |||
| 20260508203958 | 51 | 132 | 5.0 | 8.0 | 0.00 | 0.00 | 0.00 | 77 | 1020.4 |
| 20260508203700 | 0 | 0.0 | 0.0 | 0.00 | 0.00 | 0.00 | |||
| 20260508203457 | 52 | 150 | 5.0 | 9.0 | 0.00 | 0.00 | 0.00 | 76 | 1020.3 |
| 20260508202958 | 52 | 140 | 6.0 | 9.0 | 0.00 | 0.00 | 0.00 | 77 | 1020.2 |
| 20260508202659 | 0 | 0.0 | 0.0 | 0.00 | 0.00 | 0.00 | |||
| 20260508202458 | 52 | 158 | 4.0 | 6.0 | 0.00 | 0.00 | 0.00 | 76 | 1020.2 |
| 20260508202157 | 0 | 0.0 | 0.0 | 0.00 | 0.00 | 0.00 | |||
| 20260508201958 | 52 | 150 | 6.0 | 9.0 | 0.00 | 0.00 | 0.00 | 76 | 1020.3 |
| 20260508201657 | 0 | 0.0 | 0.0 | 0.00 | 0.00 | 0.00 | |||
| 20260508201457 | 52 | 153 | 6.0 | 8.0 | 0.00 | 0.00 | 0.00 | 76 | 1020.2 |
| 20260508200958 | 52 | 167 | 7.0 | 10.0 | 0.00 | 0.00 | 0.00 | 75 | 1020.1 |
| 20260508200657 | 0 | 0.0 | 0.0 | 0.00 | 0.00 | 0.00 | |||
| 20260508200458 | 53 | 165 | 8.0 | 10.0 | 0.00 | 0.00 | 0.00 | 75 | 1020.0 |
| 20260508200158 | 0 | 0.0 | 0.0 | 0.00 | 0.00 | 0.00 | |||
| 20260508195957 | 52 | 152 | 3.0 | 6.0 | 0.00 | 0.00 | 0.00 | 76 | 1020.0 |
| 20260508195658 | 0 | 0.0 | 0.0 | 0.00 | 0.00 | 0.00 | |||
| 20260508195457 | 52 | 137 | 4.0 | 6.0 | 0.00 | 0.00 | 0.00 | 75 | 1019.8 |
| 20260508195158 | 0 | 0.0 | 0.0 | 0.00 | 0.00 | 0.00 | |||
| 20260508194957 | 52 | 135 | 6.0 | 9.0 | 0.00 | 0.00 | 0.00 | 75 | 1019.7 |
| 20260508194657 | 0 | 0.0 | 0.0 | 0.00 | 0.00 | 0.00 | |||
| 20260508194457 | 53 | 162 | 9.0 | 13.0 | 0.00 | 0.00 | 0.00 | 73 | 1019.7 |
| 20260508194157 | 0 | 0.0 | 0.0 | 0.00 | 0.00 | 0.00 | |||
| 20260508193958 | 53 | 149 | 8.0 | 13.0 | 0.00 | 0.00 | 0.00 | 72 | 1019.5 |
| 20260508193657 | 0 | 0.0 | 0.0 | 0.00 | 0.00 | 0.00 | |||
| 20260508193457 | 52 | 144 | 6.0 | 8.0 | 0.00 | 0.00 | 0.00 | 73 | 1019.5 |
| 20260508193159 | 0 | 0.0 | 0.0 | 0.00 | 0.00 | 0.00 | |||
| 20260508192957 | 52 | 170 | 9.0 | 12.0 | 0.00 | 0.00 | 0.00 | 73 | 1019.7 |
| 20260508192657 | 0 | 0.0 | 0.0 | 0.00 | 0.00 | 0.00 | |||
| 20260508192458 | 51 | 141 | 4.0 | 6.0 | 0.00 | 0.00 | 0.00 | 75 | 1019.7 |
| 20260508192158 | 0 | 0.0 | 0.0 | 0.00 | 0.00 | 0.00 | |||
| 20260508191957 | 51 | 141 | 6.0 | 9.0 | 0.00 | 0.00 | 0.00 | 75 | 1019.5 |
| 20260508191457 | 51 | 149 | 4.0 | 6.0 | 0.00 | 0.00 | 0.00 | 76 | 1019.5 |
| 20260508191158 | 0 | 0.0 | 0.0 | 0.00 | 0.00 | 0.00 | |||
| 20260508190958 | 51 | 137 | 6.0 | 8.0 | 0.00 | 0.00 | 0.00 | 77 | 1019.5 |
| 20260508190457 | 51 | 134 | 5.0 | 8.0 | 0.00 | 0.00 | 0.00 | 76 | 1019.4 |
| 20260508190158 | 0 | 0.0 | 0.0 | 0.00 | 0.00 | 0.00 | |||
| 20260508185959 | 51 | 144 | 5.0 | 8.0 | 0.00 | 0.00 | 0.00 | 77 | 1019.4 |
| 20260508185457 | 52 | 159 | 6.0 | 9.0 | 0.00 | 0.00 | 0.00 | 76 | 1019.3 |
| 20260508184957 | 52 | 156 | 6.0 | 8.0 | 0.00 | 0.00 | 0.00 | 76 | 1019.2 |
| 20260508184658 | 0 | 0.0 | 0.0 | 0.00 | 0.00 | 0.00 | |||
| 20260508184457 | 52 | 159 | 7.0 | 12.0 | 0.00 | 0.00 | 0.00 | 76 | 1019.1 |